FW9014 Weather Reports


Display with metric or nautical units.
time (UTC)temp
F
wind
direction
speed
MPH
gust
MPH
rain 1hr
in
rain 24hr
in
rain mn
in
humidity
%
barometer
mb
20220118080053 49 163 11.0 14.0 0.00 0.00 0.00 77 1018.8
20220118074553 49 166 9.0 14.0 0.00 0.00 0.00 77 1018.9
20220118073048 48 162 11.0 15.0 0.00 0.00 0.00 76 1018.7
20220118071554 48 166 10.0 14.0 0.00 0.00 0.00 76 1018.9
20220118070056 48 188 10.0 13.0 0.00 0.00 0.00 73 1019.3
20220118064546 49 180 9.0 12.0 0.00 0.00 0.00 73 1019.3
20220118063151 49 165 10.0 15.0 0.00 0.00 0.00 73 1019.1
20220118061557 49 166 12.0 17.0 0.00 0.00 0.00 72 1019.0
20220118060109 49 178 12.0 16.0 0.00 0.00 0.00 70 1019.3
20220118054605 49 180 13.0 17.0 0.00 0.00 0.00 68 1019.4
20220118053200 50 177 12.0 17.0 0.00 0.00 0.00 64 1019.7
20220118051610 50 182 12.0 17.0 0.00 0.00 0.00 66 1019.7
20220118050129 50 180 12.0 16.0 0.00 0.00 0.00 66 1019.9
20220118044626 51 184 12.0 17.0 0.00 0.00 0.00 63 1019.9
20220118043105 51 176 12.0 16.0 0.00 0.00 0.00 66 1019.9
20220118041558 51 174 11.0 14.0 0.00 0.00 0.00 67 1020.0
20220118040047 52 173 11.0 15.0 0.00 0.00 0.00 65 1019.9
20220118034713 53 174 12.0 15.0 0.00 0.00 0.00 62 1019.8
20220118033059 54 165 11.0 13.0 0.00 0.00 0.00 57 1019.5
20220118031630 54 148 4.0 8.0 0.00 0.00 0.00 48 1019.4
20220118030117 53 148 2.0 6.0 0.00 0.00 0.00 48 1019.5
20220118024616 53 147 3.0 7.0 0.00 0.00 0.00 48 1019.5
20220118023111 54 126 2.0 6.0 0.00 0.00 0.00 47 1019.3
20220118021651 54 150 3.0 6.0 0.00 0.00 0.00 48 1019.5
20220118020102 55 143 3.0 8.0 0.00 0.00 0.00 59 1019.6
20220118014623 55 170 3.0 7.0 0.00 0.00 0.00 58 1019.7
20220118013148 56 159 4.0 6.0 0.00 0.00 0.00 52 1019.6
20220118011625 57 155 3.0 6.0 0.00 0.00 0.00 40 1019.7
20220118010123 57 136 2.0 5.0 0.00 0.00 0.00 40 1019.5
20220118004713 57 162 2.0 7.0 0.00 0.00 0.00 39 1019.1
20220118003203 58 136 2.0 6.0 0.00 0.00 0.00 38 1019.2
20220118001625 59 152 3.0 7.0 0.00 0.00 0.00 37 1019.3
20220118000105 60 134 2.0 3.0 0.00 0.00 0.00 35 1019.2
20220117234642 61 44 0.0 1.0 0.00 0.00 0.00 34 1019.1
20220117233129 62 0 0.0 2.0 0.00 0.00 0.00 33 1019.0
20220117231708 62 44 1.0 2.0 0.00 0.00 0.00 33 1019.3
20220117230057 61 352 1.0 3.0 0.00 0.00 0.00 43 1019.2
20220117224643 61 352 2.0 4.0 0.00 0.00 0.00 35 1019.2
20220117223121 60 346 2.0 4.0 0.00 0.00 0.00 33 1019.3
20220117221548 60 342 3.0 4.0 0.00 0.00 0.00 35 1019.3
20220117220201 59 342 3.0 4.0 0.00 0.00 0.00 41 1019.4
20220117214634 59 335 2.0 3.0 0.00 0.00 0.00 38 1019.6
20220117213138 59 323 2.0 3.0 0.00 0.00 0.00 37 1019.6
20220117211622 59 316 2.0 3.0 0.00 0.00 0.00 39 1019.6
20220117210216 58 316 2.0 3.0 0.00 0.00 0.00 40 1019.8
20220117204603 58 316 2.0 3.0 0.00 0.00 0.00 43 1020.0
20220117203056 58 316 1.0 2.0 0.00 0.00 0.00 39 1019.9
20220117201548 57 316 1.0 2.0 0.00 0.00 0.00 44 1020.0
20220117200101 56 316 1.0 2.0 0.00 0.00 0.00 39 1020.1
20220117194624 56 316 1.0 3.0 0.00 0.00 0.00 38 1020.4
20220117193056 55 316 2.0 3.0 0.00 0.00 0.00 47 1020.5
20220117191606 55 316 2.0 3.0 0.00 0.00 0.00 50 1021.0
20220117190124 53 317 3.0 7.0 0.00 0.00 0.00 60 1021.7
20220117184555 52 288 6.0 8.0 0.00 0.00 0.00 63 1021.4
20220117183231 52 294 6.0 8.0 0.00 0.00 0.00 64 1022.0
20220117181618 51 284 6.0 8.0 0.00 0.00 0.00 63 1022.2
20220117180101 51 284 5.0 7.0 0.00 0.00 0.00 66 1022.4
20220117174609 50 286 4.0 7.0 0.00 0.00 0.00 65 1022.7
20220117173146 50 280 6.0 8.0 0.00 0.00 0.00 70 1022.8
20220117171712 49 290 6.0 8.0 0.00 0.00 0.00 71 1023.0
20220117170127 49 277 4.0 6.0 0.00 0.00 0.00 73 1023.1
20220117164608 48 267 4.0 7.0 0.00 0.00 0.00 76 1023.0
20220117163145 47 297 1.0 3.0 0.00 0.00 0.00 78 1022.9
20220117161557 47 268 1.0 2.0 0.00 0.00 0.00 83 1023.0
20220117160151 45 172 1.0 4.0 0.00 0.00 0.00 87 1022.9
20220117154634 44 168 1.0 4.0 0.00 0.00 0.00 88 1023.0
20220117153146 43 200 1.0 2.0 0.00 0.00 0.00 88 1023.0
20220117151619 42 202 1.0 4.0 0.00 0.00 0.00 86 1022.9
20220117150108 42 0 0.0 2.0 0.00 0.00 0.00 85 1022.7
20220117144551 40 0 0.0 1.0 0.00 0.00 0.00 83 1022.5
20220117143124 37 76 2.0 4.0 0.00 0.00 0.00 84 1022.3
20220117141621 37 86 1.0 3.0 0.00 0.00 0.00 83 1022.0
20220117140110 38 0 0.0 1.0 0.00 0.00 0.00 85 1021.7
20220117134615 37 0 0.0 0.0 0.00 0.00 0.00 87 1021.4
20220117133148 38 0 0.0 0.0 0.00 0.00 0.00 87 1021.4
20220117131559 36 0 0.0 2.0 0.00 0.00 0.00 85 1021.2
20220117130200 37 76 0.0 1.0 0.00 0.00 0.00 85 1021.2
20220117124605 37 0 0.0 1.0 0.00 0.00 0.00 84 1020.9
20220117123125 37 0 0.0 2.0 0.00 0.00 0.00 84 1020.8
20220117121558 36 0 0.0 2.0 0.00 0.00 0.00 84 1020.6
20220117120113 36 76 0.0 2.0 0.00 0.00 0.00 83 1020.4
20220117114615 36 76 0.0 3.0 0.00 0.00 0.00 84 1020.2
20220117113108 36 74 3.0 4.0 0.00 0.00 0.00 83 1020.3
20220117111614 36 74 2.0 4.0 0.00 0.00 0.00 84 1020.2
20220117110318 36 70 3.0 4.0 0.00 0.00 0.00 83 1020.1
20220117104655 38 76 2.0 4.0 0.00 0.00 0.00 81 1020.1
20220117103205 39 63 1.0 2.0 0.00 0.00 0.00 84 1020.1
20220117101712 39 63 1.0 2.0 0.00 0.00 0.00 84 1020.1
20220117100218 39 63 0.0 2.0 0.00 0.00 0.00 84 1020.2
20220117094756 39 63 1.0 2.0 0.00 0.00 0.00 85 1020.3
20220117093315 38 63 1.0 2.0 0.00 0.00 0.00 84 1020.3
20220117091651 38 63 0.0 2.0 0.00 0.00 0.00 82 1020.0
20220117090144 36 53 1.0 2.0 0.00 0.00 0.00 84 1019.9
20220117084557 36 0 0.0 2.0 0.00 0.00 0.00 84 1019.7
20220117083109 36 0 0.0 1.0 0.00 0.00 0.00 84 1019.6
20220117081541 38 61 1.0 3.0 0.00 0.00 0.00 84 1019.6